When you browse on this site, cookies collect data to enhance your experience and personalize the content and advertising you see.
Visit our Privacy Policy to learn more. By continuing to use the site, you agree to this use of cookies and data.
  • In Lithuania
  • List of Countries
  • For 7 days
  • Water Temperature
  • Weather Map
  • Weather Widgets
  • user-avatar
    Login

    Hourly Weather Canillo

    Today, 3 April, Friday

    Time Temperature Precipitation Wind Pressure Humidity
    00:00 0°C° 0.1 mm 1 mps 613 mmHg 94%
    01:00 -2°C° 0.1 mm 2 mps 613 mmHg 94%
    02:00 -3°C° 0.1 mm 2 mps 613 mmHg 95%
    03:00 -3°C° 0.1 mm 2 mps 613 mmHg 95%
    04:00 -3°C° 0 mm 2 mps 613 mmHg 94%
    05:00 -4°C° 0 mm 2 mps 613 mmHg 94%
    06:00 -4°C° 0 mm 2 mps 613 mmHg 93%
    07:00 -2°C° 0 mm 2 mps 614 mmHg 90%
    08:00 -1°C° 0 mm 2 mps 615 mmHg 86%
    09:00 +3°C° 0 mm 1 mps 615 mmHg 83%
    10:00 +4°C° 0 mm 1 mps 616 mmHg 79%
    11:00 +5°C° 0 mm 1 mps 616 mmHg 76%
    12:00 +6°C° 0 mm 1 mps 616 mmHg 73%
    13:00 +6°C° 0 mm 1 mps 616 mmHg 73%
    14:00 +6°C° 0 mm 1 mps 616 mmHg 74%
    15:00 +5°C° 0 mm 2 mps 616 mmHg 74%
    16:00 +4°C° 0 mm 1 mps 615 mmHg 80%
    17:00 +3°C° 0 mm 1 mps 615 mmHg 85%
    18:00 +1°C° 0 mm 1 mps 614 mmHg 91%
    19:00 +1°C° 0 mm 1 mps 615 mmHg 86%
    20:00 0°C° 0 mm 1 mps 615 mmHg 82%
    21:00 -1°C° 0 mm 1 mps 615 mmHg 78%
    22:00 -1°C° 0 mm 1 mps 615 mmHg 77%
    23:00 -1°C° 0 mm 1 mps 615 mmHg 76%

    Tomorrow, 4 April, Saturday

    Time Temperature Precipitation Wind Pressure Humidity
    00:00 -1°C° 0 mm 1 mps 615 mmHg 75%
    01:00 -1°C° 0 mm 1 mps 615 mmHg 78%
    02:00 -1°C° 0 mm 1 mps 615 mmHg 80%
    03:00 -1°C° 0 mm 1 mps 615 mmHg 83%
    04:00 -1°C° 0 mm 1 mps 615 mmHg 78%
    05:00 -1°C° 0 mm 1 mps 615 mmHg 74%
    06:00 -1°C° 0 mm 1 mps 615 mmHg 70%
    07:00 +2°C° 0 mm 1 mps 617 mmHg 67%
    08:00 +5°C° 0 mm 1 mps 618 mmHg 65%
    09:00 +7°C° 0 mm 1 mps 619 mmHg 63%
    10:00 +9°C° 0 mm 1 mps 619 mmHg 61%
    11:00 +10°C° 0 mm 1 mps 620 mmHg 60%
    12:00 +10°C° 0 mm 2 mps 620 mmHg 59%
    13:00 +10°C° 0 mm 2 mps 620 mmHg 60%
    14:00 +10°C° 0 mm 2 mps 620 mmHg 61%
    15:00 +10°C° 0 mm 2 mps 620 mmHg 62%
    16:00 +8°C° 0 mm 2 mps 619 mmHg 70%
    17:00 +6°C° 0 mm 2 mps 618 mmHg 78%
    18:00 +5°C° 0 mm 2 mps 618 mmHg 87%
    19:00 +4°C° 0 mm 2 mps 618 mmHg 89%
    20:00 +3°C° 0 mm 2 mps 618 mmHg 91%
    21:00 +2°C° 0 mm 2 mps 618 mmHg 93%
    22:00 +2°C° 0 mm 2 mps 618 mmHg 92%
    23:00 +2°C° 0 mm 2 mps 618 mmHg 91%

    Day after tomorrow, 5 April, Sunday

    Time Temperature Precipitation Wind Pressure Humidity
    00:00 +1°C° 0 mm 2 mps 618 mmHg 91%
    01:00 +1°C° 0 mm 2 mps 617 mmHg 89%
    02:00 -1°C° 0 mm 2 mps 617 mmHg 87%
    03:00 -1°C° 0 mm 2 mps 617 mmHg 86%
    04:00 -2°C° 0 mm 2 mps 617 mmHg 85%
    05:00 -2°C° 0 mm 2 mps 617 mmHg 83%
    06:00 -2°C° 0 mm 2 mps 617 mmHg 82%
    07:00 +1°C° 0 mm 2 mps 618 mmHg 73%
    08:00 +4°C° 0 mm 2 mps 619 mmHg 65%
    09:00 +6°C° 0 mm 2 mps 620 mmHg 56%
    10:00 +7°C° 0 mm 2 mps 620 mmHg 53%
    11:00 +8°C° 0 mm 2 mps 620 mmHg 50%
    12:00 +9°C° 0 mm 3 mps 621 mmHg 47%
    13:00 +9°C° 0 mm 3 mps 621 mmHg 48%
    14:00 +9°C° 0 mm 3 mps 621 mmHg 50%
    15:00 +9°C° 0 mm 3 mps 620 mmHg 51%
    16:00 +8°C° 0 mm 2 mps 620 mmHg 61%
    17:00 +6°C° 0 mm 2 mps 619 mmHg 70%
    18:00 +4°C° 0 mm 2 mps 618 mmHg 80%
    19:00 +3°C° 0 mm 2 mps 618 mmHg 83%
    20:00 +2°C° 0 mm 2 mps 618 mmHg 87%
    21:00 +2°C° 0 mm 2 mps 618 mmHg 90%
    22:00 +1°C° 0 mm 2 mps 618 mmHg 90%
    23:00 +1°C° 0 mm 2 mps 618 mmHg 89%

    6 April, Monday

    Time Temperature Precipitation Wind Pressure Humidity
    00:00 +1°C° 0 mm 2 mps 618 mmHg 89%
    01:00 +1°C° 0 mm 2 mps 618 mmHg 88%
    02:00 +1°C° 0 mm 2 mps 618 mmHg 87%
    03:00 +1°C° 0 mm 2 mps 618 mmHg 85%
    04:00 +1°C° 0 mm 2 mps 618 mmHg 83%
    05:00 +1°C° 0 mm 2 mps 618 mmHg 81%
    06:00 +1°C° 0 mm 2 mps 618 mmHg 79%
    07:00 +3°C° 0 mm 2 mps 619 mmHg 74%
    08:00 +5°C° 0 mm 2 mps 620 mmHg 70%
    09:00 +6°C° 0 mm 2 mps 621 mmHg 65%
    10:00 +7°C° 0 mm 2 mps 622 mmHg 65%
    11:00 +7°C° 0 mm 2 mps 622 mmHg 66%
    12:00 +9°C° 0 mm 1 mps 622 mmHg 66%
    13:00 +8°C° 0.1 mm 1 mps 622 mmHg 71%
    14:00 +8°C° 0.1 mm 1 mps 622 mmHg 76%
    15:00 +7°C° 0.1 mm 1 mps 622 mmHg 81%
    16:00 +6°C° 0.3 mm 1 mps 622 mmHg 85%
    17:00 +6°C° 0.3 mm 1 mps 622 mmHg 89%
    18:00 +4°C° 0.3 mm 0 mps 622 mmHg 94%
    19:00 +4°C° 0.2 mm 0 mps 622 mmHg 95%
    20:00 +4°C° 0.2 mm 0 mps 622 mmHg 96%
    21:00 +4°C° 0.2 mm 0 mps 623 mmHg 97%
    22:00 +3°C° 0.3 mm 0 mps 623 mmHg 97%
    23:00 +3°C° 0.3 mm 0 mps 623 mmHg 98%

    7 April, Tuesday

    Time Temperature Precipitation Wind Pressure Humidity
    00:00 +3°C° 0.3 mm 0 mps 623 mmHg 98%
    01:00 +3°C° 0.3 mm 0 mps 623 mmHg 98%
    02:00 +4°C° 0.3 mm 1 mps 623 mmHg 98%
    03:00 +4°C° 0.3 mm 1 mps 622 mmHg 97%
    04:00 +4°C° 0 mm 1 mps 623 mmHg 97%
    05:00 +4°C° 0 mm 1 mps 623 mmHg 96%
    06:00 +4°C° 0 mm 1 mps 623 mmHg 95%
    07:00 +5°C° 0 mm 1 mps 623 mmHg 92%
    08:00 +5°C° 0 mm 1 mps 624 mmHg 89%
    09:00 +6°C° 0 mm 1 mps 624 mmHg 87%
    10:00 +6°C° 0.1 mm 1 mps 624 mmHg 85%
    11:00 +7°C° 0.1 mm 1 mps 625 mmHg 83%
    12:00 +7°C° 0.1 mm 1 mps 625 mmHg 81%
    13:00 +8°C° 0.1 mm 1 mps 625 mmHg 79%
    14:00 +8°C° 0.1 mm 1 mps 625 mmHg 77%
    15:00 +8°C° 0.1 mm 1 mps 625 mmHg 75%
    16:00 +7°C° 0 mm 1 mps 624 mmHg 78%
    17:00 +7°C° 0 mm 1 mps 624 mmHg 81%
    18:00 +6°C° 0 mm 1 mps 624 mmHg 85%
    19:00 +5°C° 0 mm 1 mps 624 mmHg 86%
    20:00 +4°C° 0 mm 1 mps 623 mmHg 88%
    21:00 +3°C° 0 mm 1 mps 623 mmHg 90%
    22:00 +3°C° 0 mm 1 mps 623 mmHg 90%
    23:00 +2°C° 0 mm 1 mps 623 mmHg 90%

    8 April, Wednesday

    Time Temperature Precipitation Wind Pressure Humidity
    00:00 +2°C° 0 mm 1 mps 623 mmHg 90%
    01:00 +2°C° 0 mm 1 mps 623 mmHg 90%
    02:00 +2°C° 0 mm 1 mps 623 mmHg 90%
    03:00 +2°C° 0 mm 1 mps 622 mmHg 90%
    04:00 +2°C° 0 mm 1 mps 622 mmHg 89%
    05:00 +2°C° 0 mm 1 mps 623 mmHg 88%
    06:00 +2°C° 0 mm 1 mps 623 mmHg 86%
    07:00 +4°C° 0 mm 1 mps 624 mmHg 76%
    08:00 +7°C° 0 mm 1 mps 624 mmHg 66%
    09:00 +9°C° 0 mm 1 mps 625 mmHg 56%
    10:00 +9°C° 0 mm 2 mps 626 mmHg 53%
    11:00 +10°C° 0 mm 2 mps 626 mmHg 51%
    12:00 +12°C° 0 mm 2 mps 626 mmHg 48%
    13:00 +12°C° 0 mm 2 mps 626 mmHg 50%
    14:00 +12°C° 0 mm 2 mps 626 mmHg 51%
    15:00 +12°C° 0 mm 2 mps 625 mmHg 53%
    16:00 +10°C° 0 mm 2 mps 625 mmHg 61%
    17:00 +9°C° 0 mm 1 mps 624 mmHg 69%
    18:00 +7°C° 0 mm 1 mps 623 mmHg 77%
    19:00 +6°C° 0 mm 1 mps 623 mmHg 81%
    20:00 +5°C° 0 mm 1 mps 623 mmHg 85%
    21:00 +4°C° 0 mm 1 mps 623 mmHg 89%
    22:00 +4°C° 0 mm 1 mps 623 mmHg 89%
    23:00 +3°C° 0 mm 1 mps 622 mmHg 89%
    Show more